Location: Puerto Pe�asco
(31.3170°N, 113.5330°W)
Time: 19:25:20
(UTC-07:00)

Daily predictions for brighter satellites

Satellite Brightness Start Highest point End
(mag) Time Altitude Azimuth Time Altitude Azimuth Time Altitude Azimuth
Cosmos 1500 3.5 19:50:40 10° N 19:54:17 44° E 19:57:52 10° SSE
HJ-1C 3.8 19:54:27 10° S 19:57:49 65° W 20:01:10 10° NNW
Cosmos 923 Rocket 4.1 19:53:49 10° S 19:59:03 61° ESE 20:04:17 10° NNE
Resurs 01 Rocket 1.6 19:58:53 10° SSE 20:03:18 73° ENE 20:07:43 10° N
NOSS 3-2 (C) 4.5 19:59:19 10° NW 20:07:03 67° WSW 20:15:12 10° SSE
Cosmos 1455 Rocket 3.2 20:03:24 10° N 20:07:41 56° E 20:11:55 10° SSE
Meteor 1-29 3.9 20:08:30 10° NE 20:11:23 26° E 20:14:15 10° SSE
Okean 1 4.2 20:09:48 10° SSW 20:13:39 52° W 20:17:32 10° N
CENTAUR R/B 3.4 20:09:19 10° NNW 20:17:16 56° ENE 20:24:52 13° SE
ALOS 4.2 20:14:15 10° SSW 20:18:19 30° W 20:22:25 10° NW
COSMOS 2406 3.3 20:15:15 10° SSW 20:20:59 84° WNW 20:26:44 10° NNE
ASTRO E2 2.7 20:17:36 10° W 20:21:36 75° S 20:24:51 15° ESE
CZ-4B DEB 4.1 20:20:52 15° ESE 20:22:19 22° ENE 20:24:42 10° NNE
Cosmos 2082 Rocket 4.0 20:23:35 11° E 20:23:49 11° E 20:25:27 10° E
Cosmos 1346 2.7 20:23:40 10° S 20:26:24 67° E 20:29:08 10° NNE
Cosmos 1975 3.1 20:22:50 10° N 20:26:55 72° W 20:30:58 10° S
Cosmos 1743 3.1 20:23:18 10° N 20:27:04 46° E 20:30:09 14° SSE
ISS -1.3 20:25:09 10° W 20:27:59 26° NW 20:30:50 10° NNE
Meteor 1-13 Rocket 4.3 20:22:39 10° S 20:28:36 81° E 20:34:31 10° N
Cosmos 2112 Rocket 3.9 20:26:22 10° SSW 20:31:35 81° ESE 20:36:48 10° NNE
Cosmos 1238 Rocket 4.4 20:25:56 10° SSE 20:32:16 48° E 20:38:34 10° NNE
CZ-2D R/B 4.3 20:30:39 10° S 20:34:18 45° W 20:37:58 10° NNW
ASTEX 1 4.2 20:34:36 18° SE 20:37:34 33° ENE 20:41:56 10° NNE
SAR-Lupe-4 3.9 20:35:32 20° SE 20:37:43 48° ENE 20:41:11 10° N
SL-27 R/B 2.5 20:34:07 10° SSW 20:37:45 90° ESE 20:41:26 10° NNE
GPS 2-14 Rocket1 4.4 20:36:37 10° SSW 20:38:54 15° S 20:39:15 15° SSE
Helios 1A 3.0 20:35:29 15° SSE 20:38:57 68° ENE 20:43:08 10° N
OAO 2 Rocket 3.9 20:34:23 10° WNW 20:39:12 55° N 20:44:04 10° ENE
Spot 2 Rocket 4.3 20:35:25 10° S 20:40:17 50° W 20:45:11 10° NNW
SL-08 ROCKET BODY 4.4 20:34:12 10° N 20:40:24 79° E 20:46:35 10° S
SJ-11-01 4.4 20:37:38 16° SSE 20:41:17 61° ENE 20:45:55 10° N
Aureole 3 Rocket 3.8 20:35:01 10° S 20:42:02 86° E 20:46:59 10° N
YAOGAN 6 3.5 20:41:00 24° ESE 20:42:11 30° ENE 20:45:18 10° NNE
Cosmos 1939 Rocket 2.8 20:40:11 20° SSE 20:42:44 60° ENE 20:46:32 10° N
Cosmos 967 Rocket 4.5 20:42:49 10° S 20:48:55 57° ESE 20:55:03 10° NE
Cosmos 1666 2.7 20:45:48 10° N 20:49:29 58° E 20:51:13 28° SSE
Okean 1-7 Rocket 3.6 20:48:27 15° S 20:52:04 62° E 20:56:30 10° NNE
SAR-Lupe-1 4.0 20:52:26 30° SSE 20:54:03 69° ENE 20:57:37 10° N
Cosmos 1680 Rocket 4.5 20:49:07 10° SW 20:54:10 49° WNW 20:59:13 10° N
USA 186 3.9 20:54:37 10° SSW 20:57:18 24° W 20:59:55 10° NW
Meteor 2-9 Rocket 4.3 20:52:26 10° N 20:57:54 59° E 21:01:06 25° SSE
Cosmos 1437 Rocket 4.0 20:57:27 10° NNE 21:00:41 25° ENE 21:00:44 25° E
Cosmos 1833 Rocket 3.7 21:00:38 25° ESE 21:00:44 25° ESE 21:05:12 10° NE
Envisat 3.4 20:58:01 13° S 21:02:29 63° W 21:07:31 10° NNW
Meteor 2-13 Rocket 4.4 20:56:56 10° N 21:03:01 88° W 21:07:52 17° S
DNEPR-1 R/B 3.6 21:01:04 10° NNW 21:05:23 71° ENE 21:07:16 36° SE
Cosmos 2327 Rocket 4.5 21:00:09 10° N 21:06:24 88° W 21:11:21 18° S
Helios 1B rocket 4.0 21:02:43 10° N 21:06:31 36° WNW 21:10:18 10° SW
Cosmos 1656 Rocket 4.1 21:02:34 10° NNW 21:07:55 57° WSW 21:11:46 19° S
NOSS 8 (E) 4.3 21:05:55 23° SSW 21:07:57 65° ESE 21:11:25 10° NE
Meteor 2-4 Rocket 4.1 21:03:08 10° SSW 21:08:41 66° W 21:14:26 10° N
Cosmos 1606 Rocket 4.3 21:06:17 10° NNE 21:10:09 32° E 21:10:24 32° E
Hubble Space Telescope 2.6 21:08:22 10° SW 21:09:49 17° SSW 21:09:49 17° SSW
Cosmos 405 2.8 21:10:35 10° N 21:14:08 74° E 21:14:29 66° SE
Cosmos 1515 4.1 21:15:55 43° ENE 21:15:55 43° ENE 21:19:13 10° NNE
Cosmos 1025 Rocket 3.1 21:12:54 20° SSW 21:15:45 74° W 21:20:00 10° N
COSMOS 2487 3.8 21:17:34 27° NE 21:17:34 27° NE 21:19:32 10° NNE
Intercosmos 24 3.7 21:14:02 10° N 21:17:34 56° E 21:17:39 56° E
Cosmos 1726 Rocket 4.3 21:15:56 10° NNE 21:19:44 34° ENE 21:19:44 34° ENE
GENESIS II 4.2 21:17:15 10° NNW 21:21:10 76° WSW 21:21:45 60° S
Aurora 2 Rocket 4.5 21:14:03 10° W 21:21:20 49° S 21:25:33 32° SE
YAOGAN 11 4.3 21:29:45 49° E 21:29:51 49° ENE 21:34:01 10° N
Tiangong 2 4.3 21:29:11 10° NNW 21:30:23 12° N 21:31:35 10° NNE
Okean 2 3.8 21:30:06 34° SSW 21:31:41 60° W 21:35:43 10° N
SPOT 1/Viking Rocket 4.3 21:32:18 35° E 21:32:43 35° ENE 21:37:22 10° N
Cosmos 2058 Rocket 3.9 21:30:35 10° NNE 21:34:09 35° ENE 21:34:09 35° ENE
Cosmos 2181 Rocket 3.9 21:34:12 38° SSE 21:36:48 72° E 21:43:06 10° N
ARGOS 3.2 21:40:02 55° ESE 21:40:59 65° ENE 21:46:21 10° N
ERS-1 Rocket 3.3 21:41:27 41° SSW 21:43:00 62° WSW 21:47:59 10° NNW
Cosmos 1371 Rocket 3.9 21:37:47 10° NNW 21:43:06 84° WSW 21:44:07 59° S
Terra 3.6 21:46:50 20° ENE 21:46:50 20° ENE 21:49:33 10° NNE
SPOT 5 2.6 21:48:43 69° NE 21:48:43 69° NE 21:52:44 10° N
NOAA 11 4.2 21:47:14 49° S 21:48:41 74° WSW 21:54:07 10° NNW
Cosmos 1295 Rocket 4.4 21:43:43 10° N 21:49:54 68° E 21:51:02 56° SE
H-2A R/B 4.0 21:52:19 19° NE 21:52:19 19° NE 21:54:38 10° NNE
Nimbus 7 Rocket 4.3 21:45:40 10° NNE 21:51:46 85° ESE 21:53:45 46° S
MetOp-B 4.4 21:59:38 51° SSW 22:00:39 61° WSW 22:05:58 10° NNW
Cosmos 2082 Rocket 2.3 22:05:18 42° SW 22:07:11 70° WNW 22:12:51 10° NNE
CENTAUR R/B 4.4 22:00:49 10° NW 22:07:42 30° WSW 22:12:05 19° SSW
Cosmos 2278 3.6 22:07:31 10° NNW 22:13:11 83° ENE 22:13:11 83° ENE
H-2A R/B 2.2 22:21:05 67° NNW 22:21:05 67° NNW 22:25:26 10° NNW
SL-8 Rocket 3.8 22:16:29 10° N 22:22:46 86° W 22:23:07 80° SSW
OAO 2 Rocket 3.9 22:19:16 10° WNW 22:23:02 52° WNW 22:23:02 52° WNW
Cosmos 2228 4.2 22:20:13 10° NNW 22:23:12 41° NW 22:23:12 41° NW
Cosmos 921 Rocket 4.3 22:22:58 10° NNW 22:26:11 39° WNW 22:26:11 39° WNW
Cosmos 2366 rocket 3.9 22:22:26 10° N 22:28:15 73° NE 22:28:15 73° NE
Cosmos 2369 3.9 22:27:23 10° NNW 22:32:38 64° W 22:32:38 64° W
Cosmos 1697 Rocket 3.2 22:28:04 10° N 22:32:41 51° NNE 22:32:41 51° NNE
Cosmos 1656 4.0 22:35:01 10° NNW 22:39:30 61° NNW 22:39:30 61° NNW
Cosmos 1833 Rocket 4.1 22:42:12 26° WSW 22:44:24 34° WNW 22:49:30 10° N
Cosmos 1980 Rocket 3.2 23:16:14 10° NNW 23:19:54 42° NNW 23:19:54 42° NNW
Terra 3.9 23:25:42 22° NW 23:25:42 22° NW 23:27:50 10° NW
Cosmos 2322 Rocket 3.8 23:27:19 10° N 23:30:47 29° NNE 23:30:47 29° NNE
USA 267 3.6 23:34:01 10° NNE 23:40:17 58° NW 23:40:17 58° NW
Lacrosse 5 4.2 23:48:51 19° NNE 23:48:51 19° NNE 23:50:18 10° NNE
